DW8722 Weather Reports


time (UTC)temp
C
wind
direction
speed
KPH
gust
KPH
rain 1hr
cm
rain 24hr
cm
rain mn
cm
humidity
%
barometer
mb
20260505230221 28 271 4.8 14.5 0.00 0.00 0.00 59 1003.3
20260505225242 30 245 4.8 16.1 0.00 0.00 0.00 65 1003.3
20260505224250 30 204 6.4 16.1 0.00 0.00 0.00 63 1003.0
20260505223231 30 196 6.4 16.1 0.00 0.00 0.00 63 1002.7
20260505222224 30 174 4.8 12.9 0.00 0.00 0.00 64 1002.6
20260505221221 30 210 4.8 12.9 0.00 0.00 0.00 62 1002.6
20260505220209 30 223 8.0 14.5 0.00 0.00 0.00 63 1002.9
20260505215231 31 186 8.0 16.1 0.00 0.00 0.00 63 1002.9
20260505214220 31 204 8.0 22.5 0.00 0.00 0.00 62 1002.9
20260505213227 31 196 9.7 24.1 0.00 0.00 0.00 62 1003.0
20260505212251 30 196 11.3 24.1 0.00 0.00 0.00 64 1003.0
20260505211303 30 217 12.9 24.1 0.00 0.00 0.00 66 1003.2
20260505210310 30 193 12.9 24.1 0.00 0.00 0.00 66 1003.2
20260505205305 29 209 11.3 22.5 0.00 0.00 0.00 68 1003.3
20260505204243 28 180 14.5 22.5 0.00 0.00 0.00 70 1003.3
20260505203252 28 171 11.3 22.5 0.00 0.00 0.00 69 1003.6
20260505202243 28 183 12.9 25.7 0.00 0.00 0.00 70 1003.7
20260505201235 28 187 12.9 29.0 0.00 0.00 0.00 69 1003.6
20260505195103 29 202 16.1 29.0 0.00 0.00 0.00 68 1003.8
20260505194042 28 194 17.7 29.0 0.00 0.00 0.00 70 1003.7
20260505193027 28 180 16.1 30.6 0.00 0.00 0.00 71 1003.8
20260505192026 27 196 19.3 30.6 0.00 0.00 0.00 70 1003.6
20260505190954 28 146 14.5 32.2 0.00 0.00 0.00 70 1003.8
20260505190014 27 207 14.5 32.2 0.00 0.00 0.00 72 1003.8
20260505185034 27 196 16.1 30.6 0.00 0.00 0.00 72 1003.8
20260505182854 27 201 16.1 32.2 0.00 0.00 0.00 71 1004.0
20260505181831 27 207 17.7 35.4 0.00 0.00 0.00 72 1004.1
20260505175700 27 202 20.9 41.8 0.00 0.00 0.00 73 1003.9
20260505174647 27 176 17.7 38.6 0.00 0.00 0.00 75 1003.8
20260505173648 26 179 16.1 30.6 0.00 0.00 0.00 76 1003.9
20260505172633 25 181 16.1 40.2 0.00 0.00 0.00 77 1004.1
20260505171648 25 199 19.3 40.2 0.00 0.00 0.00 78 1004.2
20260505164359 24 159 16.1 32.2 0.00 0.00 0.00 80 1003.7
20260505162240 25 221 20.9 46.7 0.00 0.00 0.00 78 1003.9
20260505161215 25 205 19.3 46.7 0.00 0.00 0.00 78 1003.9
20260505160226 25 195 17.7 35.4 0.00 0.00 0.00 79 1004.0
20260505153313 23 180 20.9 38.6 0.00 0.00 0.00 81 1003.7
20260505152243 23 203 22.5 38.6 0.00 0.00 0.00 82 1003.9
20260505151252 23 221 20.9 37.0 0.00 0.00 0.00 82 1004.0
20260505150231 23 200 22.5 45.1 0.00 0.00 0.00 82 1004.0
20260505140118 22 206 22.5 40.2 0.00 0.00 0.00 85 1003.6
20260505130120 21 205 17.7 30.6 0.00 0.00 0.00 86 1003.9
20260505123013 21 169 17.7 35.4 0.00 0.00 0.00 87 1003.6
20260505121947 21 0 14.5 29.0 0.00 0.00 0.00 87 1003.6
20260505120919 21 213 16.1 27.4 0.00 0.00 0.00 86 1003.5
20260505115859 21 187 16.1 37.0 0.00 0.00 0.00 86 1003.3
20260505114857 21 186 16.1 37.0 0.00 0.00 0.00 86 1003.2
20260505113844 21 173 16.1 33.8 0.00 0.00 0.00 86 1003.3
20260505112843 21 188 17.7 29.0 0.00 0.00 0.00 86 1003.3
20260505110656 21 201 17.7 30.6 0.00 0.00 0.00 86 1003.0
20260505101445 21 186 19.3 33.8 0.00 0.00 0.00 86 1003.2
20260505100439 21 194 17.7 40.2 0.00 0.00 0.00 86 1003.2
20260505095423 21 217 19.3 40.2 0.00 0.00 0.00 86 1003.4
20260505094422 21 166 16.1 33.8 0.00 0.00 0.00 86 1003.4
20260505093440 21 181 16.1 32.2 0.00 0.00 0.00 86 1003.6
20260505092436 21 207 19.3 33.8 0.00 0.00 0.00 86 1003.6
20260505091448 21 199 20.9 40.2 0.00 0.00 0.00 86 1003.7
20260505084211 21 203 17.7 35.4 0.00 0.00 0.00 86 1003.6
20260505083222 21 196 19.3 35.4 0.00 0.00 0.00 85 1003.6
20260505082237 21 196 19.3 32.2 0.00 0.00 0.00 85 1003.7
20260505081226 21 192 17.7 29.0 0.00 0.00 0.00 85 1003.8
20260505080244 21 185 19.3 43.5 0.00 0.00 0.00 85 1003.8
20260505075250 21 187 20.9 43.5 0.00 0.00 0.00 84 1003.9
20260505074232 21 180 22.5 41.8 0.00 0.00 0.00 84 1004.0
20260505073212 21 187 20.9 46.7 0.00 0.00 0.00 83 1004.2
20260505072231 21 221 24.1 46.7 0.00 0.00 0.00 83 1004.3
20260505071228 21 192 20.9 40.2 0.00 0.00 0.00 82 1004.3
20260505063943 21 188 17.7 38.6 0.00 0.00 0.00 81 1004.7
20260505062936 21 196 19.3 37.0 0.00 0.00 0.00 81 1004.8
20260505060828 21 194 16.1 32.2 0.00 0.00 0.00 80 1004.8
20260505055758 21 206 17.7 37.0 0.00 0.00 0.00 79 1004.9
20260505054818 21 219 17.7 37.0 0.00 0.00 0.00 79 1005.1
20260505053813 21 184 16.1 30.6 0.00 0.00 0.00 79 1005.1
20260505052811 21 192 17.7 33.8 0.00 0.00 0.00 78 1005.2
20260505051830 22 202 17.7 38.6 0.00 0.00 0.00 78 1005.3
20260505050854 22 171 20.9 38.6 0.00 0.00 0.00 78 1005.3
20260505041644 22 177 12.9 32.2 0.00 0.00 0.00 76 1005.6
20260505040615 22 184 14.5 32.2 0.00 0.00 0.00 76 1005.7
20260505034458 22 155 11.3 24.1 0.00 0.00 0.00 75 1005.7
20260505033507 22 183 12.9 25.7 0.00 0.00 0.00 75 1005.9
20260505032517 22 190 12.9 25.7 0.00 0.00 0.00 74 1005.9
20260505031516 22 119 12.9 24.1 0.00 0.00 0.00 74 1005.8
20260505030538 22 174 11.3 24.1 0.00 0.00 0.00 74 1005.8
20260505025601 22 175 12.9 24.1 0.00 0.00 0.00 73 1005.8
20260505024545 22 175 11.3 24.1 0.00 0.00 0.00 73 1005.7
20260505023603 22 198 11.3 20.9 0.00 0.00 0.00 72 1005.6
20260505022619 22 162 9.7 25.7 0.00 0.00 0.00 72 1005.7
20260505021617 23 168 11.3 25.7 0.00 0.00 0.00 71 1005.6
20260505020623 23 195 11.3 25.7 0.00 0.00 0.00 70 1005.6
20260505015609 23 190 17.7 35.4 0.00 0.00 0.00 70 1005.4
20260505014553 23 165 19.3 40.2 0.00 0.00 0.00 69 1005.3
20260505011244 23 167 11.3 20.9 0.00 0.00 0.00 69 1005.5
20260505010303 23 186 12.9 27.4 0.00 0.00 0.00 68 1005.5
20260505005232 24 172 12.9 29.0 0.00 0.00 0.00 68 1005.5
20260505004239 24 186 12.9 29.0 0.00 0.00 0.00 67 1005.6
20260505003226 24 192 16.1 41.8 0.00 0.00 0.00 65 1005.6
20260505002206 25 193 16.1 41.8 0.00 0.00 0.00 65 1005.5
20260505001225 25 173 16.1 30.6 0.00 0.00 0.00 64 1005.6
20260505000218 25 191 16.1 37.0 0.00 0.00 0.00 63 1005.4
20260504234059 25 194 17.7 43.5 0.00 0.00 0.00 62 1005.7
20260504233058 25 206 20.9 43.5 0.00 0.00 0.00 61 1005.8